< < Back
Terminal Aerodrome Forecast


Current Version              Previous Versions:   1  2  3  4  5  6  7  8  9  

Terminal Aerodrome Forecast

929
FTUS44 KMOB 111739
TAFMOB
TAF
KMOB 111739Z 1118/1218 23011G18KT P6SM SKC
     FM120000 20007KT P6SM SCT250
     FM120800 VRB04KT 3SM BR BKN010
     FM121600 26010KT P6SM SCT015 SCT250=



Latest METAR

468
SAUS80 KWBC 120300 RRA
MTRMOB
METAR KMOB 120256Z 22010KT 10SM CLR 15/13 A3019 RMK AO2 SLP220 T01500133
53013


USA.gov is the U.S. government's official web portal to all federal, state and local government web resources and services.